,,,PA_Meas_PMT16A,,PR_Meas_QMR101_102,,RH_Meas_QMH101,,SR_Meas_QMS101,,TA_Meas_QMH101,,GenWind,,GenWind,
date,time,status,PA,status,PR,status,RH,status,SR,status,TA,status,DirAvg,status,SpdAvg,
2009-02-09, 00:00:04,VALID,1004.9,VALID,0,VALID,85.4129,VALID,0,VALID,25.67,VALID,350,VALID,0.80625,
2009-02-09, 00:01:04,VALID,1004.88,VALID,0,VALID,85.5198,VALID,0,VALID,25.6915,VALID,344,VALID,0.887109,
2009-02-09, 00:02:04,VALID,1004.85,VALID,0,VALID,85.6342,VALID,0,VALID,25.6506,VALID,343,VALID,0.71875,
2009-02-09, 00:03:04,VALID,1004.83,VALID,0,VALID,85.6647,VALID,0,VALID,25.6311,VALID,344,VALID,0.726953,
2009-02-09, 00:04:04,VALID,1004.8,VALID,0,VALID,85.6876,VALID,0,VALID,25.6311,VALID,347,VALID,1.03633,
2009-02-09, 00:05:04,VALID,1004.81,VALID,0,VALID,85.7334,VALID,0,VALID,25.6311,VALID,357,VALID,0.636328,
2009-02-09, 00:06:04,VALID,1004.8,VALID,0,VALID,85.7868,VALID,0,VALID,25.5921,VALID,335,VALID,0.814844,
2009-02-09, 00:07:04,VALID,1004.79,VALID,0,VALID,86.0233,VALID,0,VALID,25.5727,VALID,348,VALID,0.582031,
2009-02-09, 00:08:04,VALID,1004.77,VALID,0,VALID,86.0843,VALID,0,VALID,25.5513,VALID,343,VALID,0.60625,
2009-02-09, 00:09:04,VALID,1004.73,VALID,0,VALID,86.1224,VALID,0,VALID,25.5532,VALID,347,VALID,0.460547,
2009-02-09, 00:10:04,VALID,1004.73,VALID,0,VALID,86.3666,VALID,0,VALID,25.5337,VALID,350,VALID,0.521094,
2009-02-09, 00:11:04,VALID,1004.66,VALID,0,VALID,86.6641,VALID,0,VALID,25.5142,VALID,352,VALID,0.250781,
2009-02-09, 00:12:04,VALID,1004.66,VALID,0,VALID,86.8395,VALID,0,VALID,25.4967,VALID,357,VALID,0.183203,
2009-02-09, 00:13:04,VALID,1004.66,VALID,0,VALID,86.748,VALID,0,VALID,25.4753,VALID,357,VALID,0.230859,
2009-02-09, 00:14:04,VALID,1004.64,VALID,0,VALID,86.9082,VALID,0,VALID,25.4558,VALID,357,VALID,0.128516,
2009-02-09, 00:15:04,VALID,1004.64,VALID,0,VALID,86.8167,VALID,0,VALID,25.4363,VALID,357,VALID,0.270703,
2009-02-09, 00:16:04,VALID,1004.61,VALID,0,VALID,86.7556,VALID,0,VALID,25.4363,VALID,337,VALID,0.396094,
2009-02-09, 00:17:04,VALID,1004.61,VALID,0,VALID,86.7022,VALID,0,VALID,25.4363,VALID,317,VALID,0.433203,
2009-02-09, 00:18:04,VALID,1004.6,VALID,0,VALID,86.7251,VALID,0,VALID,25.4363,VALID,354,VALID,0.631641,
2009-02-09, 00:19:04,VALID,1004.55,VALID,0,VALID,86.6488,VALID,0,VALID,25.4363,VALID,356,VALID,0.230859,
2009-02-09, 00:20:04,VALID,1004.55,VALID,0,VALID,86.6717,VALID,0,VALID,25.4169,VALID,1,VALID,0.871094,
2009-02-09, 00:21:04,VALID,1004.52,VALID,0,VALID,86.5649,VALID,0,VALID,25.4169,VALID,348,VALID,0.885938,
2009-02-09, 00:22:04,VALID,1004.49,VALID,0,VALID,86.3132,VALID,0,VALID,25.4558,VALID,4,VALID,0.822266,
2009-02-09, 00:23:04,VALID,1004.45,VALID,0,VALID,86.3589,VALID,0,VALID,25.4753,VALID,347,VALID,0.605859,
2009-02-09, 00:24:04,VALID,1004.41,VALID,0,VALID,86.4047,VALID,0,VALID,25.4753,VALID,350,VALID,0.414844,
2009-02-09, 00:25:04,VALID,1004.34,VALID,0,VALID,86.5878,VALID,0,VALID,25.4753,VALID,360,VALID,0.653125,
2009-02-09, 00:26:04,VALID,1004.34,VALID,0,VALID,86.1072,VALID,0,VALID,25.4558,VALID,2,VALID,1.3,
2009-02-09, 00:27:04,VALID,1004.32,VALID,0,VALID,86.1911,VALID,0,VALID,25.4948,VALID,354,VALID,0.785937,
2009-02-09, 00:28:04,VALID,1004.29,VALID,0,VALID,86.3284,VALID,0,VALID,25.5142,VALID,355,VALID,0.474219,
2009-02-09, 00:29:04,VALID,1004.26,VALID,0,VALID,86.5649,VALID,0,VALID,25.4753,VALID,355,VALID,0.282813,
2009-02-09, 00:30:04,VALID,1004.29,VALID,0,VALID,86.4886,VALID,0,VALID,25.4539,VALID,2,VALID,0.445313,
2009-02-09, 00:31:04,VALID,1004.32,VALID,0,VALID,86.687,VALID,0.100563,VALID,25.4558,VALID,2,VALID,0.148438,
2009-02-09, 00:32:04,VALID,1004.31,VALID,0,VALID,86.809,VALID,0,VALID,25.4169,VALID,357,VALID,0.670313,
2009-02-09, 00:33:04,VALID,1004.32,VALID,0,VALID,87.0455,VALID,0,VALID,25.3974,VALID,354,VALID,0.24375,
2009-02-09, 00:34:04,VALID,1004.36,VALID,0,VALID,87.1523,VALID,0,VALID,25.3584,VALID,360,VALID,0.174219,
2009-02-09, 00:35:04,VALID,1004.42,VALID,0,VALID,87.1905,VALID,0,VALID,25.3584,VALID,360,VALID,0.00664063,
2009-02-09, 00:36:04,VALID,1004.42,VALID,0,VALID,87.0226,VALID,0,VALID,25.339,VALID,5,VALID,0.469141,
2009-02-09, 00:37:04,VALID,1004.46,VALID,0,VALID,87.0074,VALID,0,VALID,25.339,VALID,5,VALID,0.510938,
2009-02-09, 00:38:04,VALID,1004.42,VALID,0,VALID,87.2744,VALID,0,VALID,25.339,VALID,5,VALID,0.028125,
2009-02-09, 00:39:04,VALID,1004.4,VALID,0,VALID,87.2744,VALID,0,VALID,25.2981,VALID,5,VALID,0.180078,
2009-02-09, 00:40:04,VALID,1004.41,VALID,0,VALID,87.4193,VALID,0,VALID,25.3,VALID,5,VALID,0.0164062,
2009-02-09, 00:41:04,VALID,1004.36,VALID,0,VALID,87.4727,VALID,0,VALID,25.2786,VALID,5,VALID,0.228906,
2009-02-09, 00:42:04,VALID,1004.38,VALID,0,VALID,87.5948,VALID,0,VALID,25.2806,VALID,5,VALID,0.198437,
2009-02-09, 00:43:04,VALID,1004.4,VALID,0,VALID,87.8771,VALID,0,VALID,25.2611,VALID,5,VALID,0.337109,
2009-02-09, 00:44:04,VALID,1004.4,VALID,0,VALID,88.0754,VALID,0,VALID,25.2435,VALID,5,VALID,0.291797,
2009-02-09, 00:45:04,VALID,1004.4,VALID,0,VALID,87.9,VALID,0,VALID,25.2046,VALID,5,VALID,0.349609,
2009-02-09, 00:46:04,VALID,1004.42,VALID,0,VALID,87.9686,VALID,0,VALID,25.1637,VALID,5,VALID,0.523438,
2009-02-09, 00:47:04,VALID,1004.41,VALID,0,VALID,87.7855,VALID,0,VALID,25.1637,VALID,347,VALID,0.933203,
2009-02-09, 00:48:04,VALID,1004.45,VALID,0,VALID,87.6787,VALID,0,VALID,25.1832,VALID,346,VALID,0.778516,
2009-02-09, 00:49:04,VALID,1004.42,VALID,0,VALID,87.4956,VALID,0,VALID,25.2221,VALID,1,VALID,1.05703,
2009-02-09, 00:50:04,VALID,1004.43,VALID,0,VALID,87.4422,VALID,0,VALID,25.2397,VALID,344,VALID,0.527344,
2009-02-09, 00:51:04,VALID,1004.44,VALID,0,VALID,87.3125,VALID,0,VALID,25.2786,VALID,353,VALID,0.756641,
2009-02-09, 00:52:04,VALID,1004.43,VALID,0,VALID,87.221,VALID,0,VALID,25.3,VALID,354,VALID,0.965625,
2009-02-09, 00:53:04,VALID,1004.45,VALID,0,VALID,87.1523,VALID,0,VALID,25.339,VALID,351,VALID,0.770312,
2009-02-09, 00:54:04,VALID,1004.45,VALID,0,VALID,87.1676,VALID,0,VALID,25.3584,VALID,354,VALID,0.831641,
2009-02-09, 00:55:04,VALID,1004.48,VALID,0,VALID,87.076,VALID,0,VALID,25.3584,VALID,351,VALID,0.530078,
2009-02-09, 00:56:04,VALID,1004.46,VALID,0,VALID,87.0379,VALID,0,VALID,25.3779,VALID,351,VALID,0.364062,
2009-02-09, 00:57:04,VALID,1004.45,VALID,0,VALID,87.0379,VALID,0,VALID,25.3974,VALID,5,VALID,0.752734,
2009-02-09, 00:58:04,VALID,1004.46,VALID,0,VALID,86.8624,VALID,0,VALID,25.3974,VALID,335,VALID,0.780859,
2009-02-09, 00:59:04,VALID,1004.5,VALID,0,VALID,86.8929,VALID,0,VALID,25.4169,VALID,343,VALID,0.981641,
2009-02-09, 01:00:04,VALID,1004.48,VALID,0,VALID,86.9158,VALID,0,VALID,25.4169,VALID,357,VALID,0.332031,
2009-02-09, 01:01:04,VALID,1004.5,VALID,0,VALID,86.9311,VALID,0,VALID,25.3974,VALID,356,VALID,0.427344,
2009-02-09, 01:02:04,VALID,1004.5,VALID,0,VALID,86.9692,VALID,0,VALID,25.3974,VALID,356,VALID,0.294922,
2009-02-09, 01:03:04,VALID,1004.51,VALID,0,VALID,87.0532,VALID,0,VALID,25.3974,VALID,3,VALID,0.622266,
2009-02-09, 01:04:04,VALID,1004.52,VALID,0,VALID,87.1066,VALID,0,VALID,25.3974,VALID,342,VALID,0.166797,
2009-02-09, 01:05:04,VALID,1004.5,VALID,0,VALID,87.2286,VALID,0,VALID,25.3974,VALID,342,VALID,0.146094,
2009-02-09, 01:06:04,VALID,1004.5,VALID,0,VALID,87.2591,VALID,0,VALID,25.3974,VALID,342,VALID,0,
2009-02-09, 01:07:04,VALID,1004.49,VALID,0,VALID,87.3659,VALID,0,VALID,25.3974,VALID,312,VALID,0.217578,
2009-02-09, 01:08:04,VALID,1004.46,VALID,0,VALID,87.2896,VALID,0,VALID,25.376,VALID,312,VALID,0.0890625,
2009-02-09, 01:09:05,VALID,1004.43,VALID,0,VALID,87.221,VALID,0,VALID,25.3779,VALID,348,VALID,0.469922,
2009-02-09, 01:10:05,VALID,1004.41,VALID,0,VALID,87.1752,VALID,0,VALID,25.3779,VALID,349,VALID,0.353516,
2009-02-09, 01:11:05,VALID,1004.41,VALID,0,VALID,87.3278,VALID,0,VALID,25.3779,VALID,350,VALID,0.162891,
2009-02-09, 01:12:05,VALID,1004.4,VALID,0,VALID,87.2439,VALID,0,VALID,25.3584,VALID,350,VALID,0,
2009-02-09, 01:13:05,VALID,1004.37,VALID,0,VALID,87.2439,VALID,0,VALID,25.3584,VALID,349,VALID,0,
2009-02-09, 01:14:05,VALID,1004.35,VALID,0,VALID,87.1981,VALID,0,VALID,25.339,VALID,349,VALID,0,
2009-02-09, 01:15:05,VALID,1004.3,VALID,0,VALID,87.2439,VALID,0,VALID,25.339,VALID,349,VALID,0,
2009-02-09, 01:16:05,VALID,1004.29,VALID,0,VALID,87.2286,VALID,0,VALID,25.3409,VALID,349,VALID,0,
2009-02-09, 01:17:05,VALID,1004.27,VALID,0,VALID,87.3125,VALID,0,VALID,25.3195,VALID,349,VALID,0,
2009-02-09, 01:18:05,VALID,1004.23,VALID,0,VALID,87.2973,VALID,0,VALID,25.3,VALID,349,VALID,0,
2009-02-09, 01:19:05,VALID,1004.25,VALID,0,VALID,87.3736,VALID,0,VALID,25.3,VALID,349,VALID,0,
2009-02-09, 01:20:05,VALID,1004.21,VALID,0,VALID,87.4041,VALID,0,VALID,25.3214,VALID,301,VALID,0.405859,
2009-02-09, 01:21:05,VALID,1004.2,VALID,0,VALID,87.1676,VALID,0,VALID,25.3,VALID,301,VALID,0.350391,
2009-02-09, 01:22:05,VALID,1004.19,VALID,0,VALID,86.9998,VALID,0,VALID,25.3,VALID,300,VALID,0.799609,
2009-02-09, 01:23:05,VALID,1004.2,VALID,0,VALID,87.015,VALID,0,VALID,25.339,VALID,300,VALID,0.333594,
2009-02-09, 01:24:05,VALID,1004.17,VALID,0,VALID,86.9998,VALID,0,VALID,25.3584,VALID,299,VALID,0.2375,
2009-02-09, 01:25:05,VALID,1004.13,VALID,0,VALID,87.0074,VALID,0,VALID,25.3779,VALID,299,VALID,0.0542969,
2009-02-09, 01:26:05,VALID,1004.13,VALID,0,VALID,86.8853,VALID,0,VALID,25.3798,VALID,299,VALID,0.239453,
2009-02-09, 01:27:05,VALID,1004.14,VALID,0,VALID,86.5878,VALID,0,VALID,25.3779,VALID,358,VALID,0.4375,
2009-02-09, 01:28:05,VALID,1004.14,VALID,0,VALID,86.4047,VALID,0,VALID,25.4188,VALID,357,VALID,0.880859,
2009-02-09, 01:29:05,VALID,1004.13,VALID,0,VALID,86.0919,VALID,0,VALID,25.4149,VALID,353,VALID,0.805859,
2009-02-09, 01:30:05,VALID,1004.14,VALID,0,VALID,86.1529,VALID,0,VALID,25.4558,VALID,353,VALID,0.358203,
2009-02-09, 01:31:05,VALID,1004.11,VALID,0,VALID,86.4123,VALID,0,VALID,25.4558,VALID,353,VALID,0.248047,
2009-02-09, 01:32:05,VALID,1004.14,VALID,0,VALID,86.6565,VALID,0,VALID,25.4577,VALID,353,VALID,0.0480469,
2009-02-09, 01:33:05,VALID,1004.11,VALID,0,VALID,86.3666,VALID,0,VALID,25.4169,VALID,354,VALID,0.651563,
2009-02-09, 01:34:05,VALID,1004.15,VALID,0,VALID,86.6717,VALID,0,VALID,25.4169,VALID,360,VALID,0.0398437,
2009-02-09, 01:35:05,VALID,1004.11,VALID,0,VALID,86.6488,VALID,0,VALID,25.3974,VALID,360,VALID,0,
2009-02-09, 01:36:05,VALID,1004.11,VALID,0,VALID,86.6107,VALID,0,VALID,25.3974,VALID,295,VALID,0.387891,
2009-02-09, 01:37:05,VALID,1004.09,VALID,0,VALID,86.4123,VALID,0,VALID,25.3974,VALID,299,VALID,0.403125,
2009-02-09, 01:38:05,VALID,1004.05,VALID,0,VALID,86.3589,VALID,0,VALID,25.4169,VALID,300,VALID,0.200391,
2009-02-09, 01:39:05,VALID,1004.06,VALID,0,VALID,86.3971,VALID,0,VALID,25.4383,VALID,300,VALID,0,
2009-02-09, 01:40:05,VALID,1004.04,VALID,0,VALID,86.3284,VALID,0,VALID,25.3974,VALID,268,VALID,0.684766,
2009-02-09, 01:41:05,VALID,1004.02,VALID,0,VALID,86.214,VALID,0,VALID,25.4383,VALID,269,VALID,0.278906,
2009-02-09, 01:42:05,VALID,1003.98,VALID,0,VALID,86.2826,VALID,0,VALID,25.4363,VALID,269,VALID,0,
2009-02-09, 01:43:05,VALID,1003.99,VALID,0,VALID,86.3132,VALID,0,VALID,25.4363,VALID,269,VALID,0.0507813,
2009-02-09, 01:44:05,VALID,1004,VALID,0,VALID,86.1606,VALID,0,VALID,25.4363,VALID,312,VALID,0.609375,
2009-02-09, 01:45:05,VALID,1004,VALID,0,VALID,86.2292,VALID,0,VALID,25.4363,VALID,3,VALID,0.465234,
2009-02-09, 01:46:05,VALID,1004,VALID,0,VALID,86.2674,VALID,0,VALID,25.4363,VALID,3,VALID,0.401563,
2009-02-09, 01:47:05,VALID,1003.99,VALID,0,VALID,86.5649,VALID,0,VALID,25.4363,VALID,3,VALID,0.486719,
2009-02-09, 01:48:05,VALID,1003.98,VALID,0,VALID,86.6183,VALID,0,VALID,25.3974,VALID,2,VALID,0.285937,
2009-02-09, 01:49:05,VALID,1003.99,VALID,0,VALID,87.1523,VALID,0,VALID,25.3779,VALID,2,VALID,0.145313,
2009-02-09, 01:50:05,VALID,1004.02,VALID,0,VALID,87.221,VALID,0,VALID,25.339,VALID,2,VALID,0.0847656,
2009-02-09, 01:51:05,VALID,1004,VALID,0,VALID,87.3736,VALID,0,VALID,25.3214,VALID,2,VALID,0.159375,
2009-02-09, 01:52:05,VALID,1004.01,VALID,0,VALID,87.6406,VALID,0,VALID,25.2806,VALID,2,VALID,0,
2009-02-09, 01:53:05,VALID,1004,VALID,0,VALID,87.9839,VALID,0,VALID,25.2416,VALID,2,VALID,0.0558594,
2009-02-09, 01:54:05,VALID,1004,VALID,0,VALID,88.2814,VALID,0,VALID,25.2221,VALID,2,VALID,0.108594,
2009-02-09, 01:55:05,VALID,1004.01,VALID,0,VALID,88.5332,VALID,0,VALID,25.1832,VALID,2,VALID,0,
2009-02-09, 01:56:05,VALID,1004.01,VALID,0,VALID,88.7391,VALID,0,VALID,25.1637,VALID,2,VALID,0.115625,
2009-02-09, 01:57:05,VALID,1004.01,VALID,0,VALID,88.8765,VALID,0,VALID,25.1248,VALID,2,VALID,0.530469,
2009-02-09, 01:58:05,VALID,1004,VALID,0,VALID,89.0595,VALID,0,VALID,25.045,VALID,2,VALID,0.3625,
2009-02-09, 01:59:05,VALID,1004.01,VALID,0,VALID,89.235,VALID,0,VALID,25.0079,VALID,3,VALID,0.4625,
2009-02-09, 02:00:05,VALID,1003.98,VALID,0,VALID,89.4486,VALID,0,VALID,24.9495,VALID,3,VALID,0.322656,
2009-02-09, 02:01:05,VALID,1003.98,VALID,0,VALID,89.6622,VALID,0,VALID,24.8911,VALID,3,VALID,0.170312,
2009-02-09, 02:02:05,VALID,1003.97,VALID,0,VALID,89.8758,VALID,0,VALID,24.8522,VALID,3,VALID,0,
2009-02-09, 02:03:05,VALID,1003.94,VALID,0,VALID,89.9979,VALID,0,VALID,24.8132,VALID,3,VALID,0,
2009-02-09, 02:04:05,VALID,1003.97,VALID,0,VALID,90.0894,VALID,0,VALID,24.7937,VALID,3,VALID,0,
2009-02-09, 02:05:05,VALID,1003.95,VALID,0,VALID,90.2802,VALID,0,VALID,24.7548,VALID,3,VALID,0,
2009-02-09, 02:06:05,VALID,1003.94,VALID,0,VALID,90.4938,VALID,0,VALID,24.7743,VALID,3,VALID,0,
2009-02-09, 02:07:05,VALID,1003.9,VALID,0,VALID,90.593,VALID,0,VALID,24.7548,VALID,3,VALID,0,
2009-02-09, 02:08:05,VALID,1003.91,VALID,0,VALID,90.6692,VALID,0,VALID,24.7548,VALID,3,VALID,0,
2009-02-09, 02:09:05,VALID,1003.89,VALID,0,VALID,90.8905,VALID,0,VALID,24.7743,VALID,3,VALID,0,
2009-02-09, 02:10:05,VALID,1003.88,VALID,0,VALID,90.9134,VALID,0,VALID,24.7548,VALID,3,VALID,0,
2009-02-09, 02:11:05,VALID,1003.86,VALID,0,VALID,90.9515,VALID,0,VALID,24.7353,VALID,4,VALID,0,
2009-02-09, 02:12:05,VALID,1003.86,VALID,0,VALID,90.9897,VALID,0,VALID,24.7159,VALID,13,VALID,0.498828,
2009-02-09, 02:13:05,VALID,1003.86,VALID,0,VALID,91.0507,VALID,0,VALID,24.6574,VALID,13,VALID,0.365625,
2009-02-09, 02:14:05,VALID,1003.84,VALID,0,VALID,91.1346,VALID,0,VALID,24.6593,VALID,13,VALID,0.328125,
2009-02-09, 02:15:05,VALID,1003.84,VALID,0,VALID,91.2719,VALID,0,VALID,24.638,VALID,13,VALID,0,
2009-02-09, 02:16:05,VALID,1003.82,VALID,0,VALID,91.3253,VALID,0,VALID,24.599,VALID,13,VALID,0,
2009-02-09, 02:17:05,VALID,1003.82,VALID,0,VALID,91.5161,VALID,0,VALID,24.6185,VALID,13,VALID,0,
2009-02-09, 02:18:05,VALID,1003.8,VALID,0,VALID,91.6534,VALID,0,VALID,24.6185,VALID,13,VALID,0,
2009-02-09, 02:19:05,VALID,1003.78,VALID,0,VALID,91.7602,VALID,0,VALID,24.6185,VALID,13,VALID,0,
2009-02-09, 02:20:05,VALID,1003.76,VALID,0,VALID,91.7983,VALID,0,VALID,24.5796,VALID,13,VALID,0,
2009-02-09, 02:21:05,VALID,1003.73,VALID,0,VALID,91.8517,VALID,0,VALID,24.5796,VALID,13,VALID,0,
2009-02-09, 02:22:05,VALID,1003.75,VALID,0,VALID,91.8136,VALID,0,VALID,24.5796,VALID,13,VALID,0,
2009-02-09, 02:23:05,VALID,1003.72,VALID,0,VALID,91.8594,VALID,0,VALID,24.5601,VALID,13,VALID,0,
2009-02-09, 02:24:05,VALID,1003.7,VALID,0,VALID,91.9509,VALID,0,VALID,24.5601,VALID,13,VALID,0,
2009-02-09, 02:25:05,VALID,1003.69,VALID,0,VALID,92.0424,VALID,0,VALID,24.599,VALID,13,VALID,0,
2009-02-09, 02:26:05,VALID,1003.67,VALID,0,VALID,92.073,VALID,0,VALID,24.5601,VALID,13,VALID,0,
2009-02-09, 02:27:05,VALID,1003.67,VALID,0,VALID,92.1874,VALID,0,VALID,24.5601,VALID,13,VALID,0,
2009-02-09, 02:28:05,VALID,1003.64,VALID,0,VALID,92.1416,VALID,0,VALID,24.5388,VALID,13,VALID,0,
2009-02-09, 02:29:05,VALID,1003.67,VALID,0,VALID,92.0806,VALID,0,VALID,24.5601,VALID,13,VALID,0,
2009-02-09, 02:30:05,VALID,1003.65,VALID,0,VALID,92.1187,VALID,0,VALID,24.5582,VALID,13,VALID,0,
2009-02-09, 02:31:05,VALID,1003.67,VALID,0,VALID,92.0577,VALID,0,VALID,24.599,VALID,13,VALID,0,
2009-02-09, 02:32:05,VALID,1003.65,VALID,0,VALID,92.0577,VALID,0,VALID,24.5777,VALID,13,VALID,0,
2009-02-09, 02:33:05,VALID,1003.66,VALID,0,VALID,91.9814,VALID,0,VALID,24.599,VALID,13,VALID,0,
2009-02-09, 02:34:05,VALID,1003.68,VALID,0,VALID,91.9814,VALID,0,VALID,24.6185,VALID,13,VALID,0,
2009-02-09, 02:35:05,VALID,1003.68,VALID,0,VALID,91.9738,VALID,0,VALID,24.5972,VALID,13,VALID,0,
2009-02-09, 02:36:05,VALID,1003.68,VALID,0,VALID,91.9662,VALID,0,VALID,24.599,VALID,13,VALID,0,
2009-02-09, 02:37:05,VALID,1003.68,VALID,0,VALID,91.9204,VALID,0,VALID,24.599,VALID,13,VALID,0,
2009-02-09, 02:38:05,VALID,1003.66,VALID,0,VALID,91.8975,VALID,0,VALID,24.599,VALID,13,VALID,0,
2009-02-09, 02:39:05,VALID,1003.66,VALID,0,VALID,91.8975,VALID,0,VALID,24.5777,VALID,13,VALID,0,
2009-02-09, 02:40:05,VALID,1003.65,VALID,0,VALID,91.8441,VALID,0,VALID,24.599,VALID,13,VALID,0,
2009-02-09, 02:41:05,VALID,1003.63,VALID,0,VALID,91.8365,VALID,0,VALID,24.5972,VALID,13,VALID,0,
2009-02-09, 02:42:05,VALID,1003.62,VALID,0,VALID,91.8059,VALID,0,VALID,24.638,VALID,13,VALID,0,
2009-02-09, 02:43:05,VALID,1003.6,VALID,0,VALID,91.6152,VALID,0,VALID,24.6574,VALID,13,VALID,0,
2009-02-09, 02:44:05,VALID,1003.59,VALID,0,VALID,91.4779,VALID,0,VALID,24.675,VALID,13,VALID,0.267969,
2009-02-09, 02:45:05,VALID,1003.55,VALID,0,VALID,91.1499,VALID,0,VALID,24.7335,VALID,354,VALID,0.5875,
2009-02-09, 02:46:05,VALID,1003.59,VALID,0,VALID,90.8523,VALID,0,VALID,24.7919,VALID,352,VALID,0.667969,
2009-02-09, 02:47:05,VALID,1003.58,VALID,0,VALID,90.4556,VALID,0,VALID,24.8911,VALID,340,VALID,0.568359,
2009-02-09, 02:48:05,VALID,1003.56,VALID,0,VALID,90.0055,VALID,0,VALID,24.9087,VALID,342,VALID,0.921484,
2009-02-09, 02:49:05,VALID,1003.6,VALID,0,VALID,89.6012,VALID,0,VALID,25.0079,VALID,351,VALID,0.68125,
2009-02-09, 02:50:05,VALID,1003.59,VALID,0,VALID,89.4181,VALID,0,VALID,25.0469,VALID,351,VALID,0.560156,
2009-02-09, 02:51:05,VALID,1003.64,VALID,0,VALID,89.113,VALID,0,VALID,25.0858,VALID,351,VALID,0.251953,
2009-02-09, 02:52:05,VALID,1003.67,VALID,0,VALID,88.8612,VALID,0,VALID,25.1248,VALID,350,VALID,0.114453,
2009-02-09, 02:53:05,VALID,1003.69,VALID,0,VALID,88.556,VALID,0,VALID,25.1637,VALID,288,VALID,0.511328,
2009-02-09, 02:54:05,VALID,1003.71,VALID,0,VALID,88.3272,VALID,0,VALID,25.2027,VALID,287,VALID,0.3375,
2009-02-09, 02:55:05,VALID,1003.7,VALID,0,VALID,88.1212,VALID,0,VALID,25.2416,VALID,285,VALID,0.676562,
2009-02-09, 02:56:05,VALID,1003.69,VALID,0,VALID,87.8542,VALID,0,VALID,25.2806,VALID,3,VALID,0.707031,
2009-02-09, 02:57:05,VALID,1003.68,VALID,0,VALID,87.6406,VALID,0,VALID,25.339,VALID,346,VALID,0.221875,
2009-02-09, 02:58:05,VALID,1003.66,VALID,0,VALID,87.2591,VALID,0,VALID,25.3779,VALID,348,VALID,0.661328,
2009-02-09, 02:59:05,VALID,1003.64,VALID,0,VALID,86.9235,VALID,0,VALID,25.4363,VALID,340,VALID,0.383984,
2009-02-09, 03:00:05,VALID,1003.62,VALID,0,VALID,86.7404,VALID,0,VALID,25.4753,VALID,340,VALID,0.322266,
2009-02-09, 03:01:05,VALID,1003.58,VALID,0,VALID,86.4734,VALID,0,VALID,25.4734,VALID,282,VALID,0.667969,
2009-02-09, 03:02:05,VALID,1003.57,VALID,0,VALID,86.2903,VALID,0,VALID,25.5142,VALID,280,VALID,0.509375,
2009-02-09, 03:03:05,VALID,1003.55,VALID,0,VALID,85.9927,VALID,0,VALID,25.5513,VALID,351,VALID,0.8875,
2009-02-09, 03:04:05,VALID,1003.52,VALID,0,VALID,86.0614,VALID,0,VALID,25.5902,VALID,6,VALID,0.721484,
2009-02-09, 03:05:05,VALID,1003.54,VALID,0,VALID,85.8402,VALID,0,VALID,25.5921,VALID,343,VALID,0.717188,
2009-02-09, 03:06:05,VALID,1003.51,VALID,0,VALID,85.9088,VALID,0,VALID,25.5921,VALID,285,VALID,0.344531,
2009-02-09, 03:07:05,VALID,1003.52,VALID,0,VALID,85.9317,VALID,0,VALID,25.6116,VALID,285,VALID,0.028125,
2009-02-09, 03:08:05,VALID,1003.54,VALID,0,VALID,85.9851,VALID,0,VALID,25.5902,VALID,285,VALID,0.272266,
2009-02-09, 03:09:05,VALID,1003.55,VALID,0,VALID,86.1682,VALID,0,VALID,25.5921,VALID,285,VALID,0.224219,
2009-02-09, 03:10:05,VALID,1003.52,VALID,0,VALID,86.1682,VALID,0,VALID,25.5513,VALID,328,VALID,0.551172,
2009-02-09, 03:11:05,VALID,1003.54,VALID,0,VALID,86.1529,VALID,0,VALID,25.5727,VALID,338,VALID,0.709375,
2009-02-09, 03:12:05,VALID,1003.55,VALID,0,VALID,86.275,VALID,0,VALID,25.5123,VALID,326,VALID,0.615625,
2009-02-09, 03:13:05,VALID,1003.55,VALID,0,VALID,86.2674,VALID,0,VALID,25.5337,VALID,315,VALID,0.510156,
2009-02-09, 03:14:05,VALID,1003.54,VALID,0,VALID,86.2598,VALID,0,VALID,25.5337,VALID,357,VALID,0.0398437,
2009-02-09, 03:15:05,VALID,1003.54,VALID,0,VALID,86.3666,VALID,0,VALID,25.5142,VALID,349,VALID,0.140234,
2009-02-09, 03:16:05,VALID,1003.53,VALID,0,VALID,86.4657,VALID,0,VALID,25.4928,VALID,349,VALID,0.0929687,
2009-02-09, 03:17:05,VALID,1003.52,VALID,0,VALID,86.5191,VALID,0,VALID,25.4928,VALID,349,VALID,0.283203,
2009-02-09, 03:18:05,VALID,1003.48,VALID,0,VALID,86.4657,VALID,0,VALID,25.4734,VALID,350,VALID,0.239063,
2009-02-09, 03:19:05,VALID,1003.47,VALID,0,VALID,86.6336,VALID,0,VALID,25.4948,VALID,350,VALID,0.359766,
2009-02-09, 03:20:05,VALID,1003.45,VALID,0,VALID,86.6641,VALID,0,VALID,25.4558,VALID,350,VALID,0.312891,
2009-02-09, 03:21:05,VALID,1003.48,VALID,0,VALID,86.7785,VALID,0.100563,VALID,25.4363,VALID,350,VALID,0.432031,
2009-02-09, 03:22:05,VALID,1003.5,VALID,0,VALID,86.9616,VALID,0,VALID,25.376,VALID,350,VALID,0.347656,
2009-02-09, 03:23:05,VALID,1003.53,VALID,0,VALID,87.0684,VALID,0,VALID,25.3974,VALID,350,VALID,0.146875,
2009-02-09, 03:24:05,VALID,1003.54,VALID,0,VALID,87.1905,VALID,0,VALID,25.3584,VALID,350,VALID,0,
2009-02-09, 03:25:05,VALID,1003.55,VALID,0,VALID,87.3583,VALID,0,VALID,25.339,VALID,350,VALID,0,
2009-02-09, 03:26:05,VALID,1003.56,VALID,0,VALID,87.4651,VALID,0,VALID,25.339,VALID,350,VALID,0,
2009-02-09, 03:27:05,VALID,1003.56,VALID,0,VALID,87.5414,VALID,0,VALID,25.3195,VALID,350,VALID,0,
2009-02-09, 03:28:05,VALID,1003.59,VALID,0,VALID,87.7474,VALID,0,VALID,25.3,VALID,350,VALID,0,
2009-02-09, 03:29:05,VALID,1003.57,VALID,0,VALID,87.8694,VALID,0,VALID,25.2806,VALID,350,VALID,0,
2009-02-09, 03:30:05,VALID,1003.59,VALID,0,VALID,88.0144,VALID,0,VALID,25.2806,VALID,350,VALID,0,
2009-02-09, 03:31:05,VALID,1003.58,VALID,0,VALID,88.1899,VALID,0,VALID,25.2611,VALID,350,VALID,0,
2009-02-09, 03:32:05,VALID,1003.57,VALID,0,VALID,88.4416,VALID,0,VALID,25.2416,VALID,350,VALID,0,
2009-02-09, 03:33:05,VALID,1003.59,VALID,0,VALID,88.7315,VALID,0,VALID,25.2027,VALID,350,VALID,0.29375,
2009-02-09, 03:34:05,VALID,1003.56,VALID,0,VALID,88.9451,VALID,0,VALID,25.1442,VALID,350,VALID,0.185547,
2009-02-09, 03:35:05,VALID,1003.59,VALID,0,VALID,89.0367,VALID,0,VALID,25.1248,VALID,350,VALID,0.136719,
2009-02-09, 03:36:05,VALID,1003.57,VALID,0,VALID,89.1892,VALID,0,VALID,25.0469,VALID,350,VALID,0.0367187,
2009-02-09, 03:37:05,VALID,1003.59,VALID,0,VALID,89.3723,VALID,0,VALID,25.0079,VALID,350,VALID,0,
2009-02-09, 03:38:05,VALID,1003.59,VALID,0,VALID,89.6088,VALID,0,VALID,24.969,VALID,350,VALID,0.252734,
2009-02-09, 03:39:05,VALID,1003.59,VALID,0,VALID,89.7767,VALID,0,VALID,24.93,VALID,350,VALID,0.230469,
2009-02-09, 03:40:05,VALID,1003.62,VALID,0,VALID,89.9598,VALID,0,VALID,24.8911,VALID,350,VALID,0.252734,
2009-02-09, 03:41:05,VALID,1003.61,VALID,0,VALID,90.1123,VALID,0,VALID,24.8522,VALID,350,VALID,0.129297,
2009-02-09, 03:42:05,VALID,1003.65,VALID,0,VALID,90.2497,VALID,0,VALID,24.8327,VALID,350,VALID,0.132422,
2009-02-09, 03:43:05,VALID,1003.66,VALID,0,VALID,90.3946,VALID,0,VALID,24.7937,VALID,350,VALID,0,
2009-02-09, 03:44:05,VALID,1003.7,VALID,0,VALID,90.5472,VALID,0,VALID,24.7956,VALID,350,VALID,0.137891,
2009-02-09, 03:45:05,VALID,1003.72,VALID,0,VALID,90.6998,VALID,0,VALID,24.7548,VALID,350,VALID,0,
2009-02-09, 03:46:05,VALID,1003.75,VALID,0,VALID,90.8447,VALID,0,VALID,24.7353,VALID,350,VALID,0.247266,
2009-02-09, 03:47:05,VALID,1003.75,VALID,0,VALID,90.9134,VALID,0,VALID,24.7159,VALID,350,VALID,0.234766,
2009-02-09, 03:48:05,VALID,1003.76,VALID,0,VALID,91.0049,VALID,0,VALID,24.6964,VALID,26,VALID,0.213672,
2009-02-09, 03:49:05,VALID,1003.81,VALID,0,VALID,91.0431,VALID,0,VALID,24.6964,VALID,29,VALID,0.301172,
2009-02-09, 03:50:04,VALID,1003.78,VALID,0,VALID,91.1041,VALID,0,VALID,24.6769,VALID,29,VALID,0.265625,